Location: Aubervilles
(48.9167°N, 2.3833°E)
Time: 11:05:07
(UTC+00:00)

Cosmos 1140 Rocket - Pass Details

Date: 03 February 2023
Orbit: 744 x 766 km, 74.1° (Epoch: 28 March)

Event Time Altitude Azimuth Distance (km) Brightness Sun altitude
Rises 17:21:56 0° 199° (SSW) 3,198 7.3 -5.6°
Reaches altitude 10° 17:24:17 10° 199° (SSW) 2,274 6.5 -6.0°
Maximum altitude 17:29:26 84° 112° (ESE) 761 3.5 -6.8°
Drops below altitude 10° 17:34:37 10° 24° (NNE) 2,276 5.6 -7.6°
Sets 17:36:58 0° 24° (NNE) 3,202 6.3 -8.0°
